Location: Fort Vert
(50.9684°N, 1.9375°E)
Time: 09:26:20
(UTC+00:00)

Daily predictions for brighter satellites

Satellite Brightness Start Highest point End
(mag) Time Altitude Azimuth Time Altitude Azimuth Time Altitude Azimuth
Cosmos 2360 Rocket 4.3 16:21:57 10° WNW 16:24:55 14° NNW 16:27:55 10° N
Cosmos 2219 Rocket 3.9 16:20:31 10° W 16:24:57 23° NW 16:29:24 10° NNE
SL-08 R/B 3.7 16:20:15 10° N 16:25:07 70° WNW 16:29:50 10° SSW
Cosmos 2263 4.3 16:20:06 10° NNW 16:25:37 53° NE 16:31:05 10° SE
Cosmos 1151 Rocket 3.5 16:22:29 10° SSE 16:26:28 41° E 16:30:30 10° NNE
Sich 1 3.4 16:22:27 10° NNW 16:26:48 69° W 16:31:05 10° S
Meteor PRIRODA 4.2 16:23:55 10° S 16:27:35 65° WSW 16:31:19 10° NNW
Nadezhda 1 Rocket 4.4 16:22:59 10° SSW 16:29:21 71° WNW 16:35:47 10° N
USA 267 3.6 16:24:58 10° ENE 16:31:17 53° N 16:37:37 10° WNW
ADEOS Rocket 3.7 16:23:52 10° NNE 16:31:41 68° ESE 16:39:15 10° S
ISS -3.7 16:29:08 10° W 16:32:31 87° SSW 16:35:54 10° ESE
Cosmos 2366 rocket 4.0 16:27:23 10° N 16:33:31 60° ENE 16:39:34 10° SSE
Radarsat Rocket 4.3 16:30:03 10° SSE 16:36:26 72° ENE 16:43:45 10° NNW
CZ-4B DEB 4.2 16:31:44 10° SSE 16:37:12 82° ENE 16:42:41 10° NNW
MOS 1-B 4.4 16:31:51 10° SSE 16:37:39 79° ENE 16:43:29 10° NNW
BREEZE-M DEB (TANK) 3.7 16:36:04 10° SW 16:38:15 21° SSE 16:39:53 10° ESE
Cosmos 2218 Rocket 4.0 16:32:13 10° N 16:38:22 67° ENE 16:44:30 10° SSE
Cosmos 2333 Rocket 4.1 16:35:35 10° WNW 16:39:36 19° NNW 16:43:39 10° NNE
Cosmos 1812 4.4 16:39:35 10° ESE 16:41:49 15° E 16:43:53 11° NE
Cosmos 1943 Rocket 2.7 16:36:29 10° NW 16:42:00 64° WSW 16:47:31 10° SSE
Cosmos 1470 Rocket 3.6 16:38:31 10° N 16:42:48 56° ENE 16:47:03 10° SSE
YAOGAN 1 4.4 16:41:49 10° ENE 16:43:25 12° NE 16:45:01 10° NNE
TELKOM 3 4.0 16:43:04 10° W 16:45:56 50° SSW 16:48:23 10° ESE
CENTAUR R/B 3.9 16:42:11 10° SSE 16:46:18 19° ESE 16:50:21 11° ENE
H-2A R/B 2.3 16:42:14 10° SSE 16:46:22 78° ENE 16:50:22 10° NNW
X-37B 2.3 16:44:05 10° SW 16:46:49 27° S 16:49:35 10° ESE
GEOS 3 Rocket 4.4 16:41:44 10° NE 16:46:55 48° NW 16:52:03 10° WSW
ERS-2 4.0 16:45:52 12° ENE 16:46:59 13° E 16:48:46 10° ESE
YAOGAN 6 2.5 16:44:41 10° SSE 16:48:16 75° ENE 16:51:50 10° N
Cosmos 2237 Rocket 3.5 16:45:56 10° WSW 16:51:02 34° NW 16:56:10 10° NNE
Cosmos 1515 Rocket 4.0 16:47:47 10° SSE 16:51:53 40° E 16:56:03 10° NNE
NOAA 11 4.4 16:47:01 10° SE 16:52:11 47° ENE 16:57:23 10° N
Cosmos 1602 3.6 16:50:24 10° N 16:54:19 76° E 16:58:11 10° SSE
Cosmos 2369 Rocket 2.4 16:50:24 10° NNW 16:56:07 78° WSW 17:01:45 10° SSE
Cosmos 1238 Rocket 4.0 16:53:07 10° N 16:56:53 30° ENE 17:01:17 10° SE
CZ-4B R/B 3.1 16:52:39 10° SSE 16:57:55 74° ENE 17:03:14 10° NNW
Cosmos 1943 3.7 16:52:47 10° S 16:58:01 40° ESE 17:02:57 12° NE
Cosmos 1603 4.1 16:53:39 10° S 16:58:57 45° ESE 17:04:00 11° NE
COSMO-SKYMED 1 4.0 16:58:58 15° ENE 17:00:46 18° E 17:03:47 10° SE
PAYLOAD B 4.4 16:55:44 10° SSE 17:01:19 79° WSW 17:06:54 10° NNW
Cosmos 389 Rocket 4.4 17:01:19 10° SW 17:04:17 27° WNW 17:07:17 10° N
Cosmos 44 Rocket 3.4 17:00:21 10° NW 17:05:33 88° NE 17:10:47 10° SE
Cosmos 1328 Rocket 3.5 17:02:31 10° S 17:06:52 90° NW 17:11:16 10° N
Cosmos 1680 Rocket 4.4 17:03:11 10° SSE 17:07:38 28° E 17:10:55 16° NE
USA 81 4.2 17:02:36 10° N 17:07:54 80° W 17:13:12 10° S
NOSS 3-2 (C) 4.5 17:03:54 10° SSE 17:08:25 25° ESE 17:11:34 17° ENE
AQUARIUS 4.1 17:04:19 10° SSE 17:08:48 77° ENE 17:13:19 10° NNW
Cosmos 1536 4.2 17:08:07 10° NNE 17:10:28 18° NE 17:10:28 18° NE
CZ-4B R/B 2.4 17:10:42 22° ENE 17:11:31 25° E 17:14:13 10° SSE
Cosmos 1933 Rocket 3.5 17:08:02 10° N 17:12:32 76° ENE 17:16:58 10° SSE
H-2A R/B 3.2 17:10:51 15° E 17:13:20 20° ENE 17:16:59 10° N
Meteor 1-5 Rocket 4.3 17:07:50 10° N 17:13:41 58° ENE 17:19:17 10° SSE
CZ-2D R/B 4.1 17:11:24 10° SE 17:14:40 27° ENE 17:17:58 10° N
BREEZE-M DEB (TANK) 4.5 17:17:24 10° S 17:18:15 11° SSE 17:19:01 10° SE
Meteor 1-11 Rocket 4.1 17:13:07 10° N 17:18:38 42° ENE 17:24:13 10° SE
Cosmos 1538 Rocket 4.1 17:13:36 10° SSW 17:19:00 88° ESE 17:24:25 10° NNE
Meteor 1-4 Rocket 2.6 17:15:39 10° SSW 17:19:12 74° WNW 17:22:42 10° N
Cosmos 1371 Rocket 4.2 17:16:01 10° NNW 17:21:04 49° ENE 17:26:08 10° SE
CZ-2C R/B 3.5 17:18:45 10° SE 17:22:58 31° ENE 17:27:08 10° N
Cosmos 2228 Rocket 3.4 17:21:05 10° SSE 17:25:21 43° E 17:28:59 14° NNE
H-2A R/B 2.0 17:21:07 10° NNE 17:25:24 86° WNW 17:29:45 10° SSW
Cosmos 1666 3.1 17:22:52 10° N 17:26:30 38° ENE 17:30:07 10° SE
Cosmos 2056 Rocket 3.7 17:21:45 10° NNW 17:26:55 49° ENE 17:32:07 10° SE
Cosmos 1656 Rocket 3.8 17:21:44 10° NNW 17:27:24 78° WSW 17:32:56 10° SSE
Nadezhda 3 Rocket 4.1 17:24:06 10° SSE 17:30:15 54° E 17:36:25 10° NNE
NOSS 3-2 (A) 3.6 17:25:01 10° SSW 17:30:33 53° ESE 17:34:34 22° NE
Cosmos 1500 3.1 17:27:57 10° N 17:31:49 87° ENE 17:35:40 10° S
Cosmos 1821 Rocket 3.9 17:25:43 10° N 17:32:00 71° ENE 17:38:19 10° SSE
Landsat 5 4.2 17:27:41 10° N 17:32:06 58° WNW 17:36:33 10° SSW
Cosmos 1939 Rocket 2.8 17:29:05 10° SSE 17:32:56 57° ENE 17:36:51 10° N
Cosmos 1782 3.5 17:35:14 10° SSW 17:39:08 55° WNW 17:43:06 10° N
Cosmos 1452 Rocket 4.4 17:34:42 10° N 17:39:13 27° NE 17:39:40 27° ENE
USA 281 3.5 17:34:13 10° ESE 17:40:25 46° NE 17:46:37 10° NNW
CSL-04 DEB 4.5 17:38:02 11° NNE 17:42:09 85° WNW 17:46:27 10° SSW
Cosmos 1437 Rocket 3.6 17:38:56 10° SSE 17:41:51 31° ESE 17:41:51 31° ESE
Cosmos 1624 Rocket 4.0 17:37:30 10° NNW 17:42:48 63° ENE 17:48:00 10° SE
IRS-1C Rocket 4.0 17:38:04 10° SSE 17:43:17 64° ENE 17:48:32 10° N
USA 276 4.2 17:41:23 10° S 17:43:26 17° SSE 17:43:26 17° SSE
CZ-4 R/B 1.8 17:42:47 34° E 17:43:38 38° ENE 17:47:28 10° N
BREEZE-M DEB (TANK) 4.2 17:36:22 10° SW 17:44:06 33° SSE 17:45:38 25° ESE
Cosmos 1697 Rocket 4.2 17:42:12 10° NNW 17:46:07 19° NNE 17:46:07 19° NNE
Helios 1A Rocket 3.3 17:47:27 39° ENE 17:47:27 39° ENE 17:50:58 10° N
SL-16 R/B 3.6 17:42:08 10° WSW 17:47:14 33° NW 17:52:19 10° NNE
Cosmos 1869 Rocket 3.5 17:43:37 10° N 17:48:08 75° E 17:52:34 10° SSE
Cosmos 158 Rocket 3.7 17:43:41 10° SSW 17:48:35 72° ESE 17:51:23 25° NNE
SKYMED 2 3.7 17:47:36 32° NE 17:49:13 49° E 17:53:26 10° S
Cosmos 371 Rocket 3.2 17:44:25 10° NNW 17:49:20 81° ENE 17:54:12 10° SSE
USA 238 DEB 3.7 17:45:53 10° SSW 17:52:24 65° SE 17:56:08 28° NE
USA 238 3.7 17:45:59 10° SSW 17:52:30 65° SE 17:56:13 28° NE
Okean O Rocket 3.0 17:49:09 10° S 17:53:17 41° W 17:57:29 10° NNW
Cosmos 1420 Rocket 4.1 17:49:38 10° NNW 17:54:43 49° ENE 17:56:58 30° ESE
Meteor 1-27 Rocket 3.9 17:52:15 10° SSE 17:57:33 47° E 18:00:15 27° NE
SL-24 DEB 4.2 17:56:07 10° N 18:00:53 88° W 18:05:33 10° S
Okean-O 2.6 17:57:46 10° SSE 18:02:08 60° ENE 18:06:31 10° N
Cosmos 546 4.5 17:59:08 10° WSW 18:02:59 77° SSE 18:03:22 68° ESE
Lacrosse 5 rocket 2.1 18:00:01 10° WNW 18:03:18 31° N 18:03:20 31° N
Meteor 1-10 Rocket 4.1 18:00:04 10° S 18:05:39 84° ESE 18:10:56 12° NNE
CZ-4 R/B 4.3 18:02:58 10° SSE 18:07:06 90° SE 18:11:16 10° NNW
CSL-04 Debris 4.3 18:05:56 34° ESE 18:07:50 48° ENE 18:13:06 10° N
Lacrosse 4 Rocket 1.3 18:03:53 10° SSW 18:07:52 61° ESE 18:07:52 61° ESE
ISS -2.1 18:06:05 10° W 18:09:05 30° SSW 18:10:01 25° S
DEBRIS 4.3 17:57:27 10° WNW 18:10:18 62° SSW 18:12:15 33° SE
USA 267 3.3 18:11:20 38° E 18:13:52 64° NNE 18:20:21 10° WNW
Cosmos 2084 3.4 18:09:49 10° SSW 18:14:04 66° SE 18:14:09 66° ESE
ATLAS 3B R/B 4.0 18:09:35 10° SSE 18:12:26 20° SE 18:12:26 20° SE
Cosmos 1812 3.4 18:13:25 10° SSW 18:17:10 53° WNW 18:18:59 27° NNW
CSL-04 Rocket 3.7 18:17:20 52° ENE 18:17:27 52° ENE 18:22:35 10° N
YAOGAN 1 2.4 18:18:51 73° ENE 18:18:51 73° ENE 18:23:06 10° N
Cosmos 1605 Rocket 3.8 18:13:09 10° N 18:19:12 62° ENE 18:25:15 10° SSE
ERS-2 2.5 18:20:26 55° NNW 18:20:55 62° WNW 18:24:32 10° SSW
X-37B 2.8 18:20:26 10° WSW 18:22:35 21° SSW 18:22:35 21° SSW
Cosmos 923 Rocket 4.4 18:18:57 10° SW 18:24:06 62° WNW 18:26:53 27° N
Cosmos 332 Rocket 3.9 18:21:40 10° NNW 18:26:29 73° WSW 18:29:57 19° SSE
SL-24 R/B 4.1 18:27:12 56° SW 18:27:12 56° SW 18:30:11 10° SSW
Cosmos 1461 3.0 18:22:06 10° SW 18:26:46 89° WNW 18:27:07 78° NE
Cosmos 1980 Rocket 3.9 18:23:30 10° NNW 18:25:53 18° NNE 18:25:53 18° NNE
Cosmos 1339 Rocket 4.4 18:23:12 10° S 18:29:22 63° E 18:32:11 34° NNE
ARGOS 3.4 18:34:46 51° NNE 18:34:46 51° NNE 18:39:00 10° N
CENTAUR R/B 2.5 18:29:40 10° SW 18:35:42 82° SE 18:37:34 52° NE
COSMO-SKYMED 1 3.0 18:36:11 43° NNW 18:37:18 59° WNW 18:41:34 10° SSW
Cosmos 1943 4.1 18:36:37 10° WSW 18:42:03 44° NW 18:44:47 27° N
CZ-4B R/B 3.6 18:43:50 23° WNW 18:43:50 23° WNW 18:46:16 10° WSW
SL-16 R/B 4.4 18:42:21 10° N 18:43:31 12° N 18:43:31 12° N
Cosmos 1536 4.2 18:43:51 10° NNW 18:53:38 - S 18:46:20 33° NW
Cosmos 1680 Rocket 4.2 18:44:20 10° SW 18:49:30 52° WNW 18:51:16 37° N
H-2A R/B 2.1 18:51:29 62° SSW 18:52:17 75° WSW 18:57:22 10° NNW
MOS 1 Rocket 3.6 18:52:16 81° NNW 18:52:28 84° WNW 18:57:47 10° SSW
Cosmos 304 Rocket 4.4 18:49:07 10° NNW 18:53:50 55° WSW 18:54:39 48° SW
Gblst 52 Del rocket 4.4 18:47:43 10° SW 18:53:30 60° S 18:53:30 60° S
Cosmos 967 Rocket 4.3 18:49:59 10° NW 18:56:20 83° NE 18:56:24 83° ENE
NOSS 3-2 (C) 3.4 18:52:42 10° SW 18:58:29 80° NW 18:59:02 73° N
CZ-2C R/B 4.1 18:58:11 10° SSW 19:02:46 40° W 19:07:17 10° NNW
CZ-4 R/B 3.6 19:18:49 24° W 19:18:49 24° W 19:22:11 10° NW
NOSS 3-2 (A) 4.1 19:15:46 10° WSW 19:21:32 48° NNW 19:21:59 47° NNW
USA 215 3.9 19:24:13 42° SSW 19:24:13 42° SSW 19:28:40 10° SW
USA 281 4.0 19:19:59 17° S 19:24:54 49° WSW 19:31:16 10° NW
Cosmos 1697 Rocket 4.4 19:25:38 10° NNW 19:27:52 24° NNW 19:27:52 24° NNW
USA 238 DEB 4.4 19:37:17 10° WSW 19:43:36 46° NNW 19:43:36 46° NNW
USA 238 4.4 19:37:21 10° WSW 19:43:40 46° NNW 19:43:40 46° NNW
Lacrosse 4 Rocket 4.4 19:43:32 10° W 19:44:13 13° W 19:44:13 13° W
USA 267 4.0 19:58:41 49° W 19:58:41 49° W 20:03:28 10° WNW
ATLAS 3B R/B 4.4 19:57:42 10° SW 19:59:45 22° SW 19:59:45 22° SW
CENTAUR R/B 4.1 20:21:02 10° W 20:24:46 31° WNW 20:24:46 31° WNW
